Columbia Owens, SC

7:45 PM EDT on May 26, 2018 (GMT -0400)
Columbia Owens Downtown

Weather History for KCUB - April, 2014

Change the Weather History Date:

Monday, April 7, 2014

  Actual Average Record
Temperature  
Mean Temperature 59 °F 62 °F  
Max Temperature 65 °F 75 °F 87 °F (2001)
Min Temperature 52 °F 51 °F 35 °F (2007)
Degree Days  
Heating Degree Days 6 4  
Month to date heating degree days 12 34  
Since 1 July heating degree days 2396 2237  
Cooling Degree Days 0 2  
Month to date cooling degree days 23 12  
Year to date cooling degree days 31 30  
Growing Degree Days 8 (Base 50)    
Moisture  
Dew Point 52 °F    
Average Humidity 85    
Maximum Humidity 93    
Minimum Humidity 57    
Precipitation  
Precipitation 0.52 in 0.10 in 0.67 in (2003)
Month to date precipitation 0.52 0.74  
Year to date precipitation 10.79 11.90  
Sea Level Pressure  
Sea Level Pressure 29.89 in    
Wind  
Wind Speed 4 mph (SE)    
Max Wind Speed 12 mph    
Max Gust Speed 18 mph    
Visibility 6 miles    
Events Rain , Thunderstorm    
T = Trace of Precipitation, MM = Missing Value Source: NWS Daily Summary

Daily Weather History Graph

Daily Weather History Graph

Search for Another Location

Airport or City:

Astronomy

Apr. 07, 2014 Rise Set
Actual Time 7:03 AM EDT 7:49 PM EDT
Civil Twilight 6:38 AM EDT 8:14 PM EDT
Nautical Twilight 6:08 AM EDT 8:44 PM EDT
Astronomical Twilight 5:37 AM EDT 9:15 PM EDT
Moon 1:04 PM EDT (4/7) 2:18 AM EDT (4/7)
Length of Visible Light 13h 36m
Length of Day
12h 45m
First Quarter, 53% of the Moon is Illuminated
Apr 7
First Quarter
Apr 15
Full
Apr 22
Last Quarter
Apr 29
New
May 6
First Quarter

Hourly Weather History & Observations

Time (EDT) Temp. Dew Point Humidity Pressure Visibility Wind Dir Wind Speed Gust Speed Precip Events Conditions
12:53 AM 57.0 °F 43.0 °F 59% 30.04 in 10.0 mi Variable 3.5 mph - N/A   Overcast
1:53 AM 57.0 °F 43.0 °F 59% 30.01 in 10.0 mi ENE 3.5 mph - N/A   Overcast
2:53 AM 57.0 °F 45.0 °F 64% 29.99 in 10.0 mi Calm Calm - N/A   Overcast
3:53 AM 57.0 °F 46.0 °F 67% 29.95 in 10.0 mi Variable 3.5 mph - N/A   Overcast
4:53 AM 57.0 °F 46.9 °F 69% 29.94 in 10.0 mi East 3.5 mph - N/A   Overcast
5:53 AM 57.0 °F 48.0 °F 72% 29.94 in 10.0 mi Calm Calm - N/A   Overcast
6:11 AM 57.0 °F 48.0 °F 72% 29.92 in 10.0 mi Variable 4.6 mph - N/A   Overcast
6:53 AM 57.0 °F 48.9 °F 74% 29.91 in 10.0 mi Variable 4.6 mph - N/A   Overcast
7:53 AM 57.0 °F 51.1 °F 81% 29.91 in 7.0 mi SE 4.6 mph - N/A   Overcast
8:53 AM 57.9 °F 52.0 °F 81% 29.88 in 7.0 mi Variable 5.8 mph - N/A   Overcast
9:53 AM 59.0 °F 53.1 °F 81% 29.91 in 6.0 mi Calm Calm - N/A   Haze
10:48 AM 57.2 °F 53.6 °F 88% 29.93 in 2.5 mi Variable 4.6 mph - N/A   Overcast
10:53 AM 57.0 °F 53.1 °F 87% 29.93 in 2.0 mi Variable 3.5 mph - N/A   Overcast
11:09 AM 55.9 °F 52.0 °F 87% 29.98 in 3.0 mi Variable 5.8 mph - N/A   Overcast
11:16 AM 55.0 °F 51.1 °F 86% 29.98 in 2.0 mi NNW 5.8 mph - N/A   Overcast
11:37 AM 53.1 °F 50.0 °F 89% 30.00 in 4.0 mi Variable 4.6 mph - N/A   Overcast
11:53 AM 53.1 °F 48.9 °F 86% 29.97 in 10.0 mi Variable 5.8 mph - N/A   Overcast
12:11 PM 53.1 °F 48.9 °F 86% 29.97 in 2.5 mi Variable 3.5 mph - 0.03 in Rain Rain
12:19 PM 53.1 °F 50.0 °F 89% 29.96 in 9.0 mi Calm Calm - 0.03 in Rain Light Rain
12:37 PM 53.1 °F 48.9 °F 86% 29.96 in 10.0 mi Variable 3.5 mph - 0.03 in Thunderstorm Overcast
12:53 PM 53.1 °F 50.0 °F 89% 29.94 in 6.0 mi Calm Calm - 0.05 in Rain , Thunderstorm Light Rain
1:02 PM 53.1 °F 50.0 °F 89% 29.95 in 10.0 mi Calm Calm - 0.00 in Thunderstorm Thunderstorm
1:13 PM 53.1 °F 50.0 °F 89% 29.94 in 2.5 mi Calm Calm - 0.02 in Rain Light Rain
1:21 PM 53.1 °F 50.0 °F 89% 29.94 in 1.5 mi ESE 3.5 mph - 0.05 in Rain Rain
1:24 PM 53.1 °F 50.0 °F 89% 29.94 in 3.0 mi Calm Calm - 0.05 in Rain Light Rain
1:53 PM 54.0 °F 51.1 °F 90% 29.94 in 4.0 mi Calm Calm - 0.08 in Rain Rain
2:05 PM 54.0 °F 51.1 °F 90% 29.91 in 2.5 mi Variable 3.5 mph - 0.03 in Rain Rain
2:12 PM 54.0 °F 51.1 °F 90% 29.93 in 3.0 mi Calm Calm - 0.04 in Rain Light Rain
2:38 PM 54.0 °F 52.0 °F 93% 29.91 in 2.5 mi Calm Calm - 0.08 in Rain Rain
2:46 PM 54.0 °F 52.0 °F 93% 29.90 in 4.0 mi Calm Calm - 0.10 in Rain Rain
2:53 PM 54.0 °F 52.0 °F 93% 29.89 in 5.0 mi Calm Calm - 0.11 in Rain Light Rain
3:32 PM 55.0 °F 53.1 °F 93% 29.87 in 2.0 mi Calm Calm - 0.09 in Rain Heavy Rain
3:45 PM 55.0 °F 53.1 °F 93% 29.87 in 4.0 mi Calm Calm - 0.11 in Rain Light Rain
3:53 PM 55.0 °F 53.1 °F 93% 29.85 in 4.0 mi Calm Calm - 0.12 in Rain Light Rain
4:08 PM 55.0 °F 53.1 °F 93% 29.85 in 4.0 mi SE 5.8 mph - 0.02 in Rain Rain
4:17 PM 55.9 °F 53.1 °F 90% 29.86 in 5.0 mi South 8.1 mph - 0.03 in Rain , Thunderstorm Light Rain
4:32 PM 55.9 °F 54.0 °F 93% 29.83 in 4.0 mi SE 3.5 mph - 0.06 in Rain Light Rain
4:53 PM 57.0 °F 54.0 °F 89% 29.79 in 4.0 mi SE 5.8 mph - 0.09 in Rain Light Rain
5:53 PM 60.1 °F 57.0 °F 90% 29.75 in 10.0 mi Variable 5.8 mph - 0.04 in Rain Light Rain
6:53 PM 61.0 °F 57.9 °F 90% 29.74 in 10.0 mi SE 3.5 mph - 0.03 in Rain Light Rain
7:53 PM 62.1 °F 59.0 °F 90% 29.76 in 10.0 mi SSE 5.8 mph - 0.00 in   Mostly Cloudy
8:53 PM 62.1 °F 59.0 °F 90% 29.75 in 10.0 mi Variable 3.5 mph - 0.00 in   Partly Cloudy
9:53 PM 62.1 °F 59.0 °F 90% 29.77 in 10.0 mi South 5.8 mph - 0.00 in   Mostly Cloudy
10:53 PM 62.1 °F 59.0 °F 90% 29.72 in 10.0 mi South 5.8 mph - N/A   Clear
11:11 PM 62.1 °F 59.0 °F 90% 29.72 in 10.0 mi South 5.8 mph - N/A   Scattered Clouds
11:53 PM 63.0 °F 59.0 °F 87% 29.72 in 10.0 mi SSW 6.9 mph - N/A   Mostly Cloudy